This is the latest recevied weather packets stored in our database for station/object YC2UTR-2. If no packets are shown the sender has not sent any weather packets the latest 10 day(s).
| Time | Temp. | Humidity | Pressure | Rain* | Wind** | Luminosity | Snow |
|---|---|---|---|---|---|---|---|
| 1787972449 | 28.33° C | 58% | 1018.5 hPa | - | - | - | - |
| 1787972149 | 28.89° C | 57% | 1018.5 hPa | - | - | - | - |
| 1787971849 | 28.89° C | 56% | 1018.5 hPa | - | - | - | - |
| 1787971549 | 28.89° C | 57% | 1018.6 hPa | - | - | - | - |
| 1787971249 | 27.78° C | 59% | 1018.7 hPa | - | - | - | - |
| 1787970949 | 27.78° C | 61% | 1018.9 hPa | - | - | - | - |
| 1787970649 | 27.78° C | 61% | 1019 hPa | - | - | - | - |
| 1787970349 | 27.78° C | 62% | 1019 hPa | - | - | - | - |
| 1787970049 | 27.78° C | 61% | 1019 hPa | - | - | - | - |
| 1787970003 | 27.78° C | 61% | 1019 hPa | - | - | - | - |
| 1787969703 | 27.22° C | 63% | 1019 hPa | - | - | - | - |
| 1787969403 | 27.22° C | 63% | 1019.1 hPa | - | - | - | - |
| 1787969103 | 26.67° C | 65% | 1019.2 hPa | - | - | - | - |
| 1787968803 | 26.67° C | 65% | 1019.3 hPa | - | - | - | - |
| 1787968503 | 26.67° C | 66% | 1019.3 hPa | - | - | - | - |
| 1787968203 | 26.67° C | 66% | 1019.4 hPa | - | - | - | - |
| 1787967903 | 26.67° C | 67% | 1019.3 hPa | - | - | - | - |
| 1787967603 | 26.67° C | 68% | 1019.3 hPa | - | - | - | - |
| 1787967303 | 26.67° C | 68% | 1019.3 hPa | - | - | - | - |
| 1787967003 | 26.11° C | 69% | 1019.2 hPa | - | - | - | - |
| 1787966703 | 26.11° C | 70% | 1019.1 hPa | - | - | - | - |
| 1787966403 | 26.11° C | 70% | 1019.2 hPa | - | - | - | - |
| 1787966103 | 25.56° C | 71% | 1019.2 hPa | - | - | - | - |
| 1787965803 | 25.56° C | 72% | 1019.2 hPa | - | - | - | - |
| 1787965503 | 25.56° C | 72% | 1019.1 hPa | - | - | - | - |
* Rain since midnight (hover to see other rain measurements)
** Current wind speed in m/s (hover to see current wind gust speed)